Home > Time Zones > World Clock > Weather > France > Metz > Past weeks

Flag for France Weather past 2 weeks in Metz, France

Now
61 °F

Light rain. Clear.


Feels Like: 61 °F
Forecast: 60 / 76 °F
Wind: 6 mph from West

Location: Metz-Nancy-Lorraine

Current Time: Jul 28, 2014 at 11:47:03 PM

Latest Report: Jul 28, 2014 at 11:00 PM


Visibility: N/A

Pressure: 29.92 "Hg

Humidity: 94%

Dew point: 59 °F

Location of MetzLocation

Historic Weather in Metz — Graph

°F

Metz temperature yesterday

Maximum temperature yesterday: 79 °F (at 3:00 PM)
Minimum temperature yesterday: 59 °F (at 5:30 AM)
Average temperature yesterday: 71 °F

Past Weeks' High & Low Weather Summary

 TemperatureHumidityPressure
High91 °F (Jul 18, 3:00 PM)100% (Jul 14, 4:30 AM)30.18 "Hg (Jul 14, 4:30 AM)
Low57 °F (Jul 15, 5:00 AM)30% (Jul 18, 6:30 PM)29.80 "Hg (Jul 20, 5:00 AM)
Average71 °F67%29.99 "Hg
* Reported Jul 13 10:00 PM — Jul 28 10:30 PM, Metz, Weather by CustomWeather, © 2014

Note: Actual official high and low records may vary slightly from our data, if they occured in-between our weather recording intervals... More about our weather records

Advertising

Metz weather history for previous 24 hours

 ConditionsComfort  
Time TempWeatherWind HumidityBarometerVisibility
10:30 PM
Jul 28
61 °FLight rain. Clear.7 mph94%29.92 "HgN/A
10:00 PM61 °FClear.8 mph94%29.92 "HgN/A
9:30 PM63 °FLight rain. Clear.8 mph88%29.89 "HgN/A
9:00 PM63 °FClear.8 mph94%29.89 "HgN/A
8:30 PM63 °FClear.6 mph88%29.89 "HgN/A
8:00 PM63 °FLight rain. Overcast.7 mph88%29.89 "HgN/A
7:30 PM63 °FLight rain. Clear.7 mph88%29.89 "HgN/A
7:00 PM63 °FLight rain. Low clouds.8 mph83%29.89 "HgN/A
6:30 PM63 °FLight rain. Partly sunny.10 mph94%29.89 "HgN/A
6:00 PM63 °FLight rain. Broken clouds.9 mph94%29.89 "HgN/A
5:30 PM64 °FLight rain. Broken clouds.9 mph83%29.89 "HgN/A
5:00 PM64 °FClear.10 mph83%29.89 "HgN/A
4:30 PM64 °FLight rain. Partly sunny.13 mph83%29.89 "HgN/A
4:00 PM66 °FBroken clouds.12 mph78%29.89 "HgN/A
3:30 PM66 °FLight rain. Partly sunny.9 mph83%29.89 "HgN/A
3:00 PM64 °FRain. Cloudy.9 mph88%29.89 "Hg6 mi
2:30 PM66 °FLight rain. Cloudy.14 mph78%29.89 "HgN/A
2:00 PM68 °FPartly sunny.16 mph73%29.89 "HgN/A
1:30 PM72 °FBroken clouds.17 mph65%29.89 "HgN/A
1:00 PM72 °FThunderstorms. Partly sunny.12 mph69%29.86 "HgN/A
12:30 PM73 °FPartly sunny.10 mph69%29.86 "HgN/A
12:00 PM73 °FBroken clouds.6 mph69%29.89 "HgN/A
11:30 AM73 °FScattered clouds.5 mph69%29.89 "HgN/A
11:00 AM73 °FClear.7 mph65%29.89 "HgN/A
10:30 AM72 °FPassing clouds.6 mph69%29.89 "HgN/A
10:00 AM73 °FClear.5 mph65%29.89 "HgN/A
9:30 AM73 °FClear.2 mph65%29.89 "HgN/A
9:00 AM70 °FClear.5 mph78%29.89 "HgN/A
8:30 AM68 °FClear.5 mph78%29.89 "HgN/A
8:00 AM66 °FClear.No wind83%29.92 "HgN/A
7:30 AM64 °FClear.1 mph83%29.92 "HgN/A
7:00 AM61 °FClear.3 mph94%29.92 "HgN/A
6:30 AM61 °FClear.7 mph88%29.92 "HgN/A
6:00 AM59 °FClear.6 mph94%29.92 "HgN/A
5:30 AM61 °FClear.3 mph88%29.92 "HgN/A
5:00 AM61 °FClear.5 mph88%29.92 "HgN/A
4:30 AM61 °FClear.3 mph88%29.92 "HgN/A
4:00 AM63 °FClear.3 mph83%29.92 "HgN/A
3:30 AM63 °FClear.1 mph83%29.95 "HgN/A
3:00 AM63 °FClear.No wind83%29.95 "HgN/A
2:30 AM64 °FClear.2 mph78%29.95 "HgN/A
2:00 AM64 °FClear.3 mph78%29.95 "HgN/A
1:30 AM64 °FClear.6 mph83%29.98 "HgN/A
1:00 AM64 °FClear.5 mph78%29.98 "HgN/A
12:30 AM66 °FClear.5 mph78%29.98 "HgN/A
12:00 AM68 °FClear.2 mph69%29.98 "HgN/A
11:30 PM
Jul 27
70 °FClear.2 mph64%29.98 "HgN/A
11:00 PM70 °FClear.No wind64%29.98 "HgN/A
Weather by CustomWeather, © 2014

See weather overviewHow to use our weather pages